Météo Nord-Pas-de-Calais   La météo au plus près de chez vous

Station météorologique

Observations météo à Leran (09161)

09161003 391 m Dernier relevé à 04:12
15.9°C
Humidité 84 % Vent 0 km/h

Journée consultée

Dimanche 6 Septembre 2026

Synthèse de la journée

Périodes de référence en UTC

Température maximale

33.4°C

à 19:00

06h 06h

Température minimale

15.8°C

à 04:06

18h 18h

Rafale maximale

6 km/h

à 02:06

00h 00h

Précipitations

0 mm

Cumul quotidien

06h 06h

Graphiques de la journée

Heure locale Réduire

Données détaillées

Relevés météo

Pas de 6 minutes Afficher les relevés infra-horaires
Relevés météo détaillés à Leran pour le Dimanche 6 Septembre 2026
Heure Température °C Point de rosée °C Humidité % Vent moyen (raf.), km/h Précipitations mm
04:12 15.9 °C 12.6 °C 81 % 0 km/h (4 km/h) 0 mm0 mm
04:06 15.8 °C 12.4 °C 80 % 0 km/h (2 km/h) 0 mm0 mm
04:00 16 °C 12.7 °C 81 % 0 km/h (3 km/h) 0 mm0 mm
03:54 16 °C 12.7 °C 81 % 2 km/h (4 km/h) 0 mm0 mm
03:48 16 °C 12.7 °C 81 % 3 km/h (4 km/h) 0 mm0 mm
03:42 16 °C 12.7 °C 81 % 3 km/h (6 km/h) 0 mm0 mm
03:36 15.9 °C 12.8 °C 82 % 3 km/h (6 km/h) 0 mm0 mm
03:30 15.9 °C 12.8 °C 82 % 2 km/h (5 km/h) 0 mm0 mm
03:24 16.2 °C 13.9 °C 86 % 0 km/h (3 km/h) 0 mm0 mm
03:18 16 °C 13.1 °C 83 % 0 km/h (3 km/h) 0 mm0 mm
03:12 16.2 °C 13.5 °C 84 % 0 km/h (3 km/h) 0 mm0 mm
03:06 16.2 °C 13.1 °C 82 % 0 km/h (3 km/h) 0 mm0 mm
03:00 16.3 °C 13.4 °C 83 % 0 km/h (2 km/h) 0 mm0 mm
02:54 16.4 °C 13.5 °C 83 % 0 km/h (3 km/h) 0 mm0 mm
02:48 16.4 °C 13.1 °C 81 % 0 km/h (3 km/h) 0 mm0 mm
02:42 16.4 °C 12.6 °C 78 % 0 km/h (3 km/h) 0 mm0 mm
02:36 16.4 °C 12.4 °C 77 % 2 km/h (3 km/h) 0 mm0 mm
02:30 16.5 °C 12.5 °C 77 % 2 km/h (3 km/h) 0 mm0 mm
02:24 16.6 °C 12.7 °C 78 % 2 km/h (5 km/h) 0 mm0 mm
02:18 16.7 °C 13 °C 79 % 3 km/h (5 km/h) 0 mm0 mm
02:12 16.8 °C 12.7 °C 77 % 2 km/h (4 km/h) 0 mm0 mm
02:06 16.8 °C 12.7 °C 77 % 3 km/h (6 km/h) 0 mm0 mm
02:00 16.9 °C 12.6 °C 76 % 3 km/h (6 km/h) 0 mm0 mm
01:54 17.1 °C 13.2 °C 78 % 2 km/h (4 km/h) 0 mm0 mm
01:48 17.1 °C 13.2 °C 78 % 2 km/h (4 km/h) 0 mm0 mm
01:42 17.1 °C 12.6 °C 75 % 2 km/h (6 km/h) 0 mm0 mm
01:36 17.2 °C 12.5 °C 74 % 4 km/h (6 km/h) 0 mm0 mm
01:30 17.3 °C 12.8 °C 75 % 3 km/h (5 km/h) 0 mm0 mm
01:24 17.2 °C 12.5 °C 74 % 2 km/h (4 km/h) 0 mm0 mm
01:18 17.2 °C 12.7 °C 75 % 0 km/h (4 km/h) 0 mm0 mm
01:12 17.3 °C 12.8 °C 75 % 0 km/h (3 km/h) 0 mm0 mm
01:06 17.4 °C 12.9 °C 75 % 0 km/h (3 km/h) 0 mm0 mm
01:00 17.4 °C 12.9 °C 75 % 0 km/h (3 km/h) 0 mm0 mm
00:54 17.4 °C 12.5 °C 73 % 2 km/h (4 km/h) 0 mm0 mm
00:48 17.6 °C 12.9 °C 74 % 2 km/h (4 km/h) 0 mm0 mm
00:42 17.6 °C 12.5 °C 72 % 0 km/h (3 km/h) 0 mm0 mm
00:36 17.7 °C 12.8 °C 73 % 0 km/h (2 km/h) 0 mm0 mm
00:30 17.9 °C 13.2 °C 74 % 0 km/h (2 km/h) 0 mm0 mm
00:24 18.1 °C 13.2 °C 73 % 0 km/h (2 km/h) 0 mm0 mm
00:18 18.3 °C 13.6 °C 74 % 0 km/h (3 km/h) 0 mm0 mm
00:12 18.3 °C 12.5 °C 69 % 2 km/h (4 km/h) 0 mm0 mm
00:06 18.3 °C 12.5 °C 69 % 3 km/h (4 km/h) 0 mm0 mm
00:00 18.3 °C 12.5 °C 69 % 4 km/h (7 km/h) 0 mm0 mm

Données via Météo-France

Relevés météo à Leran

Cette page rassemble les observations de la station de Leran : température, humidité, vent, précipitations et pression atmosphérique. Les graphiques facilitent le suivi de la journée, tandis que le tableau donne accès aux mesures horaires et infra-horaires disponibles.

Pour replacer ces mesures dans leur contexte, consultez la climatologie de Leran ainsi que ses normales et records. Retrouvez aussi la carte des observations météo en temps réel.